Temp
69 73 72 71 57 54 49 57 72 69 70 73 78 76 74 74 74 64 81 81 78 77 79 80 80 80 79 79 79 78 78 78 78 79 79 79 79 79 79 79 79 80 81 81 81 81 80 80 80
68 76 71 63 51 44 52 64 68 73 75 74 81 82 74 71 85 77 76 80 79 78 78 78 79 79 79 79 78 78 78 78 78 78 79 79 79 79 79 79 79 80 81 81 81 80 80 80 79
70 73 62 56 48 48 51 66 72 73 77 75 72 84 76 74 82 79 81 79 78 77 78 78 79 79 79 79 78 78 78 78 78 79 79 79 78 78 78 78 79 80 81 81 80 80 79 79 79
67 63 61 51 49 56 62 67 71 73 75 78 77 71 74 89 84 83 81 80 77 75 77 79 79 79 79 79 78 78 78 78 78 79 79 79 78 78 78 78 79 80 81 81 80 79 79 79 79
63 55 47 45 52 59 68 72 73 73 75 74 75 69 76 86 85 81 80 80 75 77 79 78 79 79 79 79 79 78 78 78 78 78 79 78 78 78 78 78 79 79 80 80 79 79 79 78 78
55 53 41 47 51 65 70 73 72 75 79 74 66 65 75 83 81 81 81 78 78 78 79 78 79 79 78 78 78 78 78 78 78 78 78 78 78 77 78 78 78 79 79 79 79 78 78 78 77
50 46 43 44 55 60 68 73 72 78 77 80 81 73 75 79 82 83 79 77 77 78 79 77 77 78 79 78 78 78 77 77 77 77 77 77 77 77 77 77 78 78 78 78 78 78 77 77 77
57 50 44 50 54 54 69 73 72 79 80 90 88 73 70 79 84 80 77 75 75 78 78 79 76 76 75 76 78 78 77 77 77 77 77 77 77 77 77 76 77 78 78 78 77 77 77 77 77
61 46 44 51 55 56 68 67 81 87 85 77 82 77 83 84 81 77 75 72 72 74 76 78 79 77 75 75 77 77 78 77 77 77 77 75 73 73 75 76 77 77 77 77 77 77 77 77 77
53 46 49 58 60 59 65 70 77 81 77 73 75 84 85 81 78 75 73 71 71 70 72 75 76 75 74 79 75 73 75 74 73 73 73 72 71 71 75 76 77 77 77 77 77 77 77 77 71
51 50 60 60 66 67 68 67 78 77 70 76 74 79 82 79 77 75 75 75 73 73 73 72 72 73 75 75 74 73 72 72 72 72 72 70 72 69 71 70 72 71 75 71 73 72 71 70 69
48 57 62 61 67 67 67 71 72 75 78 82 82 83 82 80 77 77 77 77 75 74 75 74 74 73 72 73 72 72 72 70 69 70 71 69 68 68 69 70 70 69 70 69 69 68 69 70 71
52 55 61 65 67 68 69 68 69 72 82 85 84 84 82 82 80 81 80 78 78 77 77 76 75 73 73 72 72 72 71 72 72 71 71 70 67 68 70 71 70 70 69 70 69 69 70 70 72
54 57 60 63 62 66 66 66 68 76 80 81 80 80 81 81 80 80 78 77 77 78 78 78 77 75 74 72 73 74 74 73 72 72 73 73 71 69 70 71 71 71 71 72 71 71 71 71 72
57 52 57 61 64 63 67 63 67 76 79 77 77 79 78 75 75 72 72 76 79 78 79 78 78 77 75 74 74 74 76 76 74 75 74 74 73 72 72 72 71 72 72 73 72 72 72 70 73
50 49 42 55 63 65 66 55 68 69 75 75 77 79 76 71 71 71 71 73 75 72 75 77 82 79 77 77 75 74 75 74 76 76 75 76 75 74 73 73 73 74 73 72 71 70 70 71 71
44 39 46 52 62 62 63 56 69 71 73 72 75 75 73 72 68 69 70 72 69 70 72 73 76 78 78 77 77 77 76 76 77 77 78 77 76 77 75 74 73 73 72 71 71 71 70 70 70
38 41 46 50 58 61 57 59 66 69 71 70 68 72 72 73 69 66 69 70 66 66 66 72 73 73 77 78 75 75 75 75 75 75 75 76 78 77 74 73 73 73 71 70 70 69 69 67 66
48 46 47 54 62 59 58 56 64 67 65 67 66 67 65 70 70 68 70 68 69 67 66 67 68 74 74 74 74 72 72 73 73 75 77 77 77 77 75 73 72 72 70 69 69 69 67 64 65
47 44 46 54 62 58 55 58 63 65 64 66 67 68 68 68 68 68 67 67 68 67 66 65 63 72 74 73 74 75 74 74 75 74 75 76 75 74 73 72 71 71 70 69 68 67 65 64 64
46 44 46 48 59 61 57 52 58 64 66 67 67 71 70 67 65 64 66 66 68 67 65 63 63 70 73 74 73 73 75 74 73 74 74 73 75 75 73 71 70 69 69 68 67 66 65 63 63
41 52 53 52 51 45 59 41 51 58 59 65 66 67 67 70 70 68 68 65 67 68 68 69 66 72 73 73 71 71 69 68 70 71 71 70 72 72 72 69 68 67 67 66 67 67 65 64 63
43 53 51 50 50 49 51 45 55 56 56 60 62 66 66 71 72 71 71 71 73 73 71 73 73 72 72 72 71 69 68 69 69 69 69 67 67 68 69 68 67 66 66 64 64 64 64 65 65
54 50 51 51 50 43 49 45 47 54 60 58 61 65 67 71 73 74 76 74 73 72 71 71 71 69 71 70 70 69 68 67 66 66 64 64 64 64 65 66 64 63 62 61 60 60 58 57 59
48 42 35 35 37 36 50 50 47 63 62 64 63 64 66 72 73 73 69 70 68 68 68 69 68 67 68 68 67 67 66 64 62 62 62 61 60 60 60 60 60 60 59 60 59 58 58 56 55
41 38 33 32 34 38 52 45 54 65 65 68 68 68 67 66 73 72 72 71 69 69 67 66 66 65 66 65 63 64 63 61 60 59 60 60 60 58 58 59 59 59 59 58 56 55 55 53 52
40 36 47 39 42 42 43 49 60 64 64 65 65 66 66 66 64 67 69 69 67 66 65 65 63 63 63 64 63 62 62 61 60 60 60 59 59 65 62 61 57 56 55 54 52 52 51 50 50
45 51 41 40 34 33 40 45 48 56 58 63 66 63 59 61 62 64 66 65 65 65 64 63 63 60 61 62 62 61 59 60 59 60 60 60 60 60 57 56 55 54 53 52 50 48 49 49 49
43 41 43 42 45 32 32 44 57 57 62 63 65 59 59 60 61 63 64 64 64 64 64 63 62 61 60 60 59 58 57 57 57 58 55 54 54 54 55 56 54 52 51 50 50 49 50 50 48
51 45 44 35 37 41 39 41 57 60 67 67 58 59 60 60 61 62 63 63 63 62 62 61 60 59 59 58 57 55 54 54 53 52 52 53 52 53 54 54 53 52 51 49 49 48 49 48 48
MSLP
1010.97 1010.86 1010.75 1010.96 1012.01 1011.89 1010.72 1008.88 1007.02 1006.67 1006.72 1006.31 1006.28 1005.94 1005.92 1006.92 1007.35 1007.75 1006.13 1007.04 1007.70 1008.45 1009.11 1009.68 1009.83 1010.08 1010.37 1010.75 1011.03 1011.40 1011.77 1011.94 1012.17 1012.38 1012.58 1012.81 1013.09 1013.28 1013.39 1013.50 1013.76 1014.03 1014.19 1014.21 1014.31 1014.33 1014.32 1014.35 1014.40
1011.13 1010.76 1010.98 1011.52 1012.13 1011.77 1009.77 1007.83 1005.97 1006.25 1005.75 1006.08 1005.57 1004.52 1006.22 1006.98 1006.47 1006.75 1007.11 1007.54 1007.59 1008.28 1009.11 1009.65 1009.92 1010.18 1010.62 1010.95 1011.22 1011.53 1011.90 1012.15 1012.38 1012.62 1012.80 1013.02 1013.20 1013.41 1013.75 1013.84 1013.92 1014.06 1014.17 1014.25 1014.38 1014.45 1014.47 1014.48 1014.53
1011.18 1011.00 1011.63 1011.90 1011.53 1010.36 1008.90 1006.18 1006.47 1005.80 1005.15 1005.67 1005.98 1004.42 1004.16 1005.34 1005.26 1006.22 1006.60 1007.54 1008.14 1008.61 1008.95 1009.58 1009.92 1010.24 1010.68 1011.00 1011.43 1011.77 1012.07 1012.33 1012.53 1012.76 1013.01 1013.15 1013.32 1013.51 1013.70 1014.05 1014.15 1014.18 1014.22 1014.26 1014.33 1014.48 1014.59 1014.62 1014.60
1011.22 1011.61 1011.88 1011.53 1010.55 1008.63 1007.07 1005.38 1005.65 1006.07 1006.22 1005.97 1006.10 1007.08 1005.50 1003.34 1004.36 1005.05 1006.19 1007.55 1008.41 1008.92 1009.11 1009.54 1009.86 1010.20 1010.66 1011.09 1011.50 1011.87 1012.21 1012.42 1012.67 1012.93 1013.21 1013.37 1013.54 1013.69 1013.84 1013.93 1014.10 1014.22 1014.31 1014.33 1014.45 1014.63 1014.77 1014.80 1014.67
1011.28 1012.11 1012.31 1011.55 1009.77 1007.88 1006.32 1004.88 1005.25 1005.23 1005.60 1005.90 1006.35 1007.33 1005.88 1004.68 1004.12 1005.58 1006.15 1007.39 1008.28 1009.00 1009.42 1009.76 1009.97 1010.27 1010.73 1011.17 1011.51 1011.91 1012.23 1012.51 1012.65 1012.97 1013.19 1013.43 1013.59 1013.66 1013.94 1014.10 1014.20 1014.30 1014.45 1014.49 1014.53 1014.70 1014.79 1014.77 1014.68
1011.77 1012.03 1012.42 1011.08 1009.28 1007.34 1005.67 1004.83 1005.06 1004.03 1004.42 1006.22 1006.82 1008.30 1006.23 1006.65 1005.44 1006.32 1006.70 1007.55 1008.33 1008.71 1009.52 1010.06 1010.29 1010.42 1010.73 1011.25 1011.60 1011.93 1012.34 1012.48 1012.74 1012.91 1013.17 1013.30 1013.53 1013.73 1013.97 1014.19 1014.32 1014.41 1014.53 1014.59 1014.68 1014.78 1014.80 1014.78 1014.71
1011.71 1011.99 1011.31 1010.36 1009.07 1007.03 1004.54 1004.37 1004.33 1003.53 1003.24 1003.68 1004.91 1006.22 1006.72 1007.38 1006.17 1006.19 1007.23 1008.06 1008.40 1008.86 1009.69 1010.20 1010.53 1010.62 1010.82 1011.16 1011.51 1011.83 1012.12 1012.37 1012.61 1012.80 1013.04 1013.31 1013.56 1013.83 1013.98 1014.22 1014.31 1014.40 1014.53 1014.67 1014.75 1014.80 1014.82 1014.72 1014.62
1011.17 1011.27 1010.66 1009.37 1008.24 1005.50 1004.88 1004.19 1003.76 1003.02 1002.07 1002.17 1002.75 1005.54 1006.56 1006.77 1006.12 1006.46 1007.63 1008.40 1008.85 1009.26 1009.80 1010.26 1010.63 1010.82 1011.03 1011.36 1011.44 1011.77 1012.03 1012.29 1012.60 1012.86 1013.14 1013.30 1013.52 1013.73 1013.95 1014.22 1014.29 1014.33 1014.52 1014.78 1014.85 1014.88 1014.79 1014.73 1014.71
1010.20 1010.65 1009.47 1008.18 1007.19 1005.69 1004.32 1004.04 1002.91 1002.43 1001.99 1003.35 1003.41 1003.81 1005.49 1005.77 1005.90 1006.93 1008.23 1008.83 1009.38 1009.87 1009.93 1010.29 1010.57 1010.72 1011.00 1011.33 1011.68 1011.88 1012.09 1012.34 1012.68 1013.08 1013.33 1013.53 1013.73 1013.84 1014.04 1014.19 1014.39 1014.46 1014.54 1014.77 1014.93 1014.94 1014.83 1014.75 1014.71
1010.07 1009.41 1008.22 1007.15 1006.58 1005.66 1004.61 1004.08 1003.43 1003.45 1002.93 1003.23 1003.84 1003.92 1003.76 1005.63 1005.76 1006.63 1008.02 1008.82 1009.30 1009.81 1010.15 1010.41 1010.65 1010.80 1010.97 1011.18 1011.55 1012.02 1012.30 1012.46 1012.71 1013.03 1013.29 1013.67 1013.81 1013.93 1013.93 1014.13 1014.26 1014.43 1014.62 1014.78 1014.86 1014.91 1014.92 1014.79 1014.74
1009.05 1008.22 1007.87 1006.86 1006.28 1005.66 1004.40 1004.23 1003.94 1004.01 1003.57 1002.67 1002.96 1003.76 1004.12 1005.02 1006.02 1006.50 1007.32 1007.69 1008.20 1008.90 1009.67 1010.36 1010.57 1010.67 1010.90 1011.24 1011.57 1011.99 1012.32 1012.59 1012.82 1012.95 1013.21 1013.56 1013.76 1014.01 1013.95 1014.08 1014.38 1014.64 1014.70 1014.82 1014.91 1014.93 1014.73 1014.55 1014.73
1009.39 1007.92 1007.64 1007.03 1006.33 1005.50 1004.36 1004.44 1003.88 1003.33 1002.51 1002.95 1001.99 1002.83 1003.80 1004.81 1005.55 1005.73 1006.43 1007.21 1008.08 1008.69 1009.26 1009.75 1010.23 1010.50 1010.67 1010.82 1011.34 1011.50 1011.94 1012.39 1012.78 1012.97 1013.09 1013.48 1013.83 1013.83 1013.95 1013.98 1014.11 1014.43 1014.58 1014.72 1014.75 1014.76 1014.62 1014.45 1014.29
1008.99 1008.38 1007.44 1006.85 1006.19 1005.19 1005.05 1004.47 1004.26 1002.98 1001.86 1002.15 1001.78 1002.62 1002.65 1003.53 1004.36 1005.23 1005.56 1006.38 1007.19 1008.35 1008.91 1009.20 1009.71 1010.22 1010.65 1010.96 1011.20 1011.46 1011.70 1011.89 1012.13 1012.61 1012.91 1013.01 1013.43 1013.75 1013.76 1013.81 1013.83 1014.16 1014.30 1014.32 1014.39 1014.47 1014.41 1014.34 1013.96
1008.55 1008.27 1007.47 1006.58 1005.89 1005.17 1004.78 1004.68 1004.27 1001.84 1001.43 1001.80 1001.82 1002.23 1002.86 1003.31 1004.20 1005.55 1006.42 1007.11 1007.30 1007.44 1008.36 1008.98 1009.62 1010.09 1010.67 1011.03 1011.26 1011.51 1011.49 1011.56 1011.89 1012.14 1012.27 1012.50 1012.74 1013.22 1013.48 1013.81 1013.66 1013.74 1013.91 1013.78 1013.82 1013.95 1014.11 1014.09 1013.89
1008.80 1008.45 1007.38 1005.97 1005.39 1004.75 1005.07 1004.58 1002.88 1001.73 1001.86 1001.34 1002.13 1002.56 1003.27 1004.47 1005.19 1006.14 1006.92 1007.45 1007.25 1007.64 1008.14 1008.56 1009.46 1010.18 1010.69 1010.88 1011.15 1011.68 1011.51 1011.60 1011.58 1011.62 1011.81 1012.02 1012.31 1012.74 1012.96 1013.35 1013.59 1013.34 1013.44 1013.55 1013.59 1013.63 1013.75 1013.94 1013.71
1008.90 1008.24 1007.25 1005.21 1004.87 1004.55 1004.99 1003.56 1002.15 1002.10 1001.72 1001.81 1002.07 1003.09 1003.96 1005.38 1005.85 1005.94 1006.66 1007.56 1008.49 1008.44 1008.46 1008.65 1008.99 1009.61 1010.11 1010.44 1010.68 1011.05 1011.16 1011.70 1011.49 1011.53 1011.46 1011.53 1011.84 1012.36 1012.79 1013.02 1013.07 1012.82 1012.95 1013.21 1013.34 1013.39 1013.40 1013.59 1013.50
1009.12 1008.24 1006.67 1005.71 1004.11 1004.60 1004.20 1002.94 1001.85 1002.08 1001.93 1002.22 1002.16 1003.18 1004.14 1005.27 1006.07 1005.91 1006.06 1007.66 1010.01 1010.70 1010.77 1009.64 1009.70 1010.02 1010.07 1010.21 1010.56 1010.91 1010.86 1010.80 1010.90 1011.34 1011.45 1011.41 1011.66 1012.09 1012.35 1012.57 1012.68 1012.80 1012.82 1013.03 1013.33 1013.36 1013.50 1013.74 1013.73
1009.04 1008.20 1006.79 1005.14 1003.54 1003.92 1003.68 1002.68 1001.81 1002.04 1002.01 1002.43 1003.00 1003.43 1004.25 1004.90 1005.84 1006.09 1006.40 1007.99 1009.96 1010.95 1012.64 1012.72 1010.78 1010.49 1010.18 1010.12 1010.32 1010.59 1010.82 1011.00 1010.68 1010.85 1010.99 1011.27 1011.55 1011.74 1012.17 1012.32 1012.45 1012.63 1012.90 1013.20 1013.30 1013.42 1013.59 1014.00 1013.76
1008.95 1007.95 1006.71 1004.86 1003.78 1003.50 1003.27 1002.92 1002.07 1002.00 1002.07 1002.69 1003.20 1003.90 1004.28 1004.86 1006.32 1006.90 1007.74 1009.37 1009.84 1011.33 1012.65 1013.73 1013.54 1010.83 1010.24 1010.03 1010.33 1010.61 1010.87 1011.02 1011.31 1011.29 1011.08 1011.03 1011.26 1011.25 1011.57 1012.19 1012.54 1012.83 1012.88 1013.09 1012.97 1012.73 1012.94 1013.54 1013.63
1008.91 1008.11 1006.60 1004.89 1003.59 1003.53 1003.27 1002.78 1002.19 1001.89 1002.07 1002.33 1002.82 1003.64 1004.19 1005.36 1006.01 1006.89 1007.73 1008.63 1008.90 1009.66 1009.98 1013.63 1014.02 1009.99 1009.57 1009.95 1009.96 1010.83 1011.18 1011.19 1011.35 1011.34 1011.23 1011.21 1011.12 1011.48 1011.75 1012.24 1012.59 1012.91 1013.03 1013.19 1013.48 1013.62 1013.32 1013.25 1013.78
1008.40 1007.75 1006.58 1005.07 1003.44 1003.10 1003.10 1002.83 1002.45 1001.64 1001.86 1002.31 1002.33 1002.65 1003.86 1004.64 1006.18 1006.78 1007.46 1008.06 1008.77 1009.28 1009.31 1010.61 1011.16 1009.60 1009.79 1009.73 1009.83 1010.50 1011.04 1011.39 1011.56 1011.65 1011.54 1011.70 1011.65 1011.92 1012.00 1012.08 1012.66 1013.05 1013.20 1013.66 1013.74 1013.76 1013.42 1013.49 1013.83
1007.82 1007.24 1006.38 1005.09 1004.37 1003.25 1002.54 1003.05 1002.43 1001.69 1001.94 1002.29 1002.77 1002.83 1003.58 1004.58 1005.66 1006.36 1007.09 1007.82 1008.69 1009.21 1008.98 1010.20 1011.61 1011.19 1010.14 1009.99 1010.14 1010.84 1011.84 1012.41 1012.88 1012.41 1012.38 1012.43 1012.23 1012.38 1012.45 1012.56 1012.83 1013.32 1013.53 1013.85 1013.91 1013.90 1013.74 1013.78 1013.80
1007.53 1007.21 1006.45 1005.68 1004.66 1003.14 1002.67 1003.11 1001.86 1001.88 1002.23 1002.33 1002.61 1002.68 1003.27 1003.90 1004.55 1005.45 1005.87 1006.82 1007.39 1009.26 1009.03 1009.44 1010.09 1009.47 1009.58 1010.38 1010.44 1011.11 1012.12 1012.89 1013.35 1013.61 1013.15 1013.18 1013.57 1013.42 1013.33 1013.22 1013.33 1013.82 1014.14 1014.28 1014.30 1014.64 1014.50 1014.10 1014.15
1007.66 1007.27 1006.43 1005.83 1004.67 1003.43 1002.15 1002.38 1002.33 1001.55 1000.62 1002.22 1002.66 1002.67 1002.92 1003.67 1004.27 1004.72 1005.10 1006.43 1007.11 1008.23 1008.90 1009.06 1009.14 1009.87 1010.45 1010.88 1011.22 1011.94 1012.79 1013.69 1013.80 1014.27 1014.16 1014.21 1014.26 1014.25 1014.24 1013.98 1014.22 1014.52 1014.71 1014.94 1014.98 1014.98 1014.79 1014.73 1014.79
1008.13 1007.99 1006.53 1005.49 1004.43 1003.19 1001.91 1002.15 1001.13 1000.22 1000.98 1001.63 1002.54 1002.93 1003.09 1003.55 1004.10 1004.66 1005.27 1005.92 1007.42 1008.37 1009.24 1009.74 1010.74 1011.56 1011.83 1012.33 1012.80 1013.12 1013.79 1014.25 1014.60 1015.01 1015.17 1015.36 1015.27 1015.12 1015.31 1015.21 1015.48 1015.54 1015.55 1015.59 1015.61 1015.67 1015.59 1015.67 1015.76
1008.22 1008.47 1006.79 1004.60 1003.66 1002.94 1002.10 1001.32 1000.36 999.85 1000.53 1001.15 1001.97 1002.60 1003.26 1003.83 1004.22 1004.50 1004.97 1006.12 1007.24 1008.79 1009.71 1010.56 1011.83 1012.74 1012.87 1013.15 1013.85 1014.40 1014.72 1015.13 1015.55 1015.74 1015.84 1015.82 1015.74 1015.86 1015.78 1015.89 1015.99 1015.93 1015.99 1016.15 1016.32 1016.54 1016.57 1016.54 1016.55
1008.19 1007.64 1004.88 1004.52 1003.10 1003.01 1002.27 1001.17 1000.15 1000.30 1000.82 1001.30 1002.16 1002.84 1003.61 1003.93 1004.98 1005.26 1006.13 1007.11 1008.15 1009.15 1010.31 1011.16 1012.08 1013.32 1013.88 1014.19 1014.32 1014.97 1015.27 1015.74 1016.08 1016.13 1016.19 1016.30 1016.26 1016.24 1016.37 1016.35 1016.49 1016.65 1016.77 1016.95 1016.96 1016.91 1016.89 1016.89 1016.91
1006.93 1006.20 1005.38 1004.31 1003.50 1003.28 1002.48 1001.23 1000.47 1000.65 1000.79 1001.36 1002.31 1003.31 1004.46 1005.16 1006.23 1006.73 1007.27 1008.27 1009.30 1009.93 1010.90 1011.93 1012.72 1013.41 1014.35 1014.73 1014.94 1015.46 1016.01 1016.50 1016.75 1016.86 1016.69 1016.68 1016.81 1016.84 1016.84 1017.08 1017.31 1017.45 1017.45 1017.43 1017.22 1017.11 1017.19 1017.29 1017.36
1006.11 1005.77 1004.73 1003.59 1002.89 1002.67 1002.32 1001.02 999.68 999.98 1000.52 1001.61 1002.74 1003.99 1005.14 1006.03 1007.05 1007.77 1008.39 1009.38 1010.14 1010.88 1011.92 1013.06 1013.92 1014.33 1015.22 1015.87 1016.28 1016.83 1017.29 1017.49 1017.12 1016.73 1017.12 1017.41 1017.42 1017.44 1017.38 1017.60 1017.87 1017.91 1018.00 1017.76 1017.53 1017.47 1017.54 1017.58 1017.52
1005.25 1004.72 1004.18 1003.83 1003.12 1002.60 1002.04 1002.04 1000.40 999.82 1000.37 1001.67 1003.62 1004.87 1005.98 1006.80 1008.17 1008.75 1009.32 1010.32 1011.19 1011.80 1012.64 1013.47 1014.43 1015.22 1015.97 1016.41 1016.70 1017.06 1017.17 1017.21 1017.38 1017.74 1017.95 1018.00 1017.97 1017.79 1017.82 1018.12 1018.15 1018.33 1018.32 1018.16 1017.99 1018.13 1018.03 1017.89 1017.71
Wind_Speed
8 7 2 4 3 4 5 7 6 2 1 1 3 4 2 8 6 7 6 12 19 17 14 14 19 20 20 19 19 18 16 16 15 15 15 15 14 13 14 14 13 12 13 13 12 11 9 8 8
4 4 4 2 4 2 7 7 19 6 7 8 6 10 5 8 7 7 8 14 20 19 14 13 19 19 20 19 18 18 17 16 15 14 14 14 13 13 12 11 12 13 13 12 11 9 8 5 5
3 2 4 5 5 9 7 12 6 2 13 6 4 2 16 9 5 15 13 17 17 15 14 15 19 20 20 19 18 17 17 16 15 14 14 14 13 12 12 10 10 11 12 12 11 8 6 4 2
1 4 3 4 10 9 12 7 3 5 1 3 11 8 4 9 18 14 23 19 16 13 14 19 21 21 20 20 19 18 17 16 15 14 13 12 12 11 10 11 10 10 10 10 9 7 5 3 1
2 3 2 5 11 7 11 16 5 6 10 8 10 13 3 2 19 23 23 19 18 16 14 14 20 21 21 20 19 17 17 15 15 14 14 13 11 11 10 9 9 9 9 9 8 6 5 4 3
1 4 2 12 9 15 17 13 4 15 9 14 20 34 3 13 23 19 18 17 16 19 15 12 18 20 21 20 19 17 16 15 15 14 13 12 11 10 9 8 8 8 7 7 7 6 6 5 6
5 4 7 5 15 18 15 6 10 14 7 17 29 9 9 12 17 18 16 15 15 18 15 12 11 15 19 19 19 18 17 15 15 14 13 12 11 9 9 8 7 7 7 6 6 6 7 7 8
5 4 5 7 10 14 5 7 4 8 9 11 14 5 11 15 18 18 15 14 13 15 14 15 9 9 10 11 18 17 16 16 14 13 12 11 10 10 9 8 8 7 7 7 7 7 8 8 9
4 3 9 10 11 5 7 3 4 5 8 7 3 26 17 19 21 18 14 13 11 10 13 14 14 11 9 8 11 13 15 13 12 10 10 8 3 5 6 7 7 7 7 8 7 8 9 9 10
6 7 8 5 5 6 6 6 11 2 3 5 13 12 28 20 21 21 15 13 11 11 10 12 13 13 10 8 9 5 7 4 5 5 6 4 4 4 5 6 9 9 8 8 8 9 9 9 4
5 9 12 4 8 10 14 7 5 4 3 17 24 22 24 22 18 19 17 19 17 15 10 10 10 10 10 8 6 4 3 3 3 6 5 5 3 3 3 2 2 2 6 3 4 5 4 5 4
5 3 10 5 8 10 12 6 8 9 10 16 29 28 22 20 20 22 19 16 16 16 14 13 12 11 7 8 7 8 6 4 4 4 6 4 3 4 4 3 4 4 3 4 4 3 5 6 6
10 6 7 9 15 19 7 10 7 15 14 21 25 25 29 25 22 17 19 17 20 18 16 15 13 9 8 8 6 6 6 6 7 6 6 5 5 4 3 4 4 4 3 4 4 5 5 5 5
4 7 10 11 12 13 12 8 4 18 14 27 28 25 22 23 18 14 15 15 16 18 17 15 14 10 9 7 8 7 6 6 5 6 7 9 6 5 4 4 4 4 4 4 5 5 5 5 4
8 10 11 12 17 13 6 10 18 17 4 22 20 19 14 9 12 12 8 8 16 13 14 16 14 12 11 9 7 5 6 5 6 6 7 8 7 6 6 4 4 4 5 5 3 4 3 4 4
3 3 4 6 13 6 10 14 15 1 11 17 21 16 13 7 9 11 8 6 4 6 12 13 14 16 14 11 8 5 5 4 5 6 6 9 8 5 4 3 3 2 0 2 2 2 3 3 4
3 4 8 7 8 5 13 10 16 5 6 10 17 15 12 10 12 10 13 14 18 16 10 6 6 12 12 9 7 7 6 6 6 5 6 8 6 6 5 4 2 0 1 2 3 2 1 3 5
7 5 5 13 6 12 11 11 7 8 7 10 9 12 14 12 15 13 15 15 17 15 21 14 3 6 7 6 4 4 4 2 3 4 5 6 5 6 5 3 3 2 2 3 2 1 3 2 2
10 10 7 6 10 7 14 5 11 6 4 9 9 8 7 11 12 15 13 17 14 8 9 23 21 8 3 2 3 2 1 1 2 1 6 7 6 7 6 3 0 1 1 0 2 3 4 1 3
13 13 14 12 8 7 8 10 9 6 4 8 11 10 10 10 6 7 8 7 13 16 20 9 20 16 6 3 4 3 2 0 2 2 3 5 4 2 2 3 0 2 2 4 4 4 2 0 2
14 11 12 10 6 8 8 3 5 5 5 6 6 10 16 21 14 9 11 9 17 18 15 11 7 24 4 4 3 3 3 3 2 1 2 4 6 4 3 5 3 4 4 3 2 1 2 1 1
12 13 14 15 8 8 9 7 5 6 4 6 8 9 11 16 18 15 13 13 20 20 16 17 22 21 6 3 4 5 2 0 3 3 6 8 9 7 6 4 5 5 2 5 3 2 2 3 3
9 10 12 13 12 5 5 7 10 5 5 7 8 9 12 14 15 18 16 19 18 20 19 20 19 9 5 4 5 5 3 3 2 4 9 9 8 8 8 8 8 8 6 5 8 6 8 4 4
11 10 13 12 6 8 8 8 6 9 16 5 4 7 10 13 15 18 16 17 15 9 9 6 8 8 6 8 10 10 10 5 6 5 7 7 5 6 8 9 8 6 7 7 6 5 8 7 7
12 10 4 5 4 6 8 9 8 16 8 9 9 8 10 15 15 12 10 8 11 12 12 11 13 11 14 14 12 12 11 11 10 7 6 6 6 7 9 9 9 7 7 8 9 10 10 8 7
9 5 3 5 6 6 9 9 10 12 9 11 11 11 10 11 15 14 13 10 13 16 16 18 15 12 13 14 12 11 11 8 8 8 7 7 7 6 7 8 8 9 9 8 7 6 5 6 5
7 9 13 2 1 7 4 2 7 7 9 9 10 9 10 11 3 9 15 15 16 16 16 18 18 13 13 13 12 12 12 12 9 10 8 6 6 7 7 8 9 9 9 7 6 5 6 5 5
10 8 6 2 9 7 3 5 7 11 10 11 13 10 10 16 17 16 16 17 16 19 17 17 15 15 13 13 12 11 10 10 8 8 10 9 8 8 7 9 9 9 8 7 6 5 5 6 4
6 5 5 1 6 6 7 8 6 9 13 14 12 12 19 19 18 17 17 17 17 18 18 17 15 16 14 12 12 11 9 8 8 11 9 7 7 6 8 8 8 8 8 7 8 7 8 8 6
11 2 2 3 3 2 6 5 8 9 17 17 16 19 20 22 19 19 19 18 17 17 16 16 15 15 12 11 11 10 9 9 10 9 7 6 7 6 7 8 8 8 8 7 9 8 8 8 8
Wind_Direction
314 314 304 39 52 71 243 247 250 73 5 341 58 89 119 138 268 242 126 140 132 140 145 147 141 135 130 128 125 123 120 115 113 111 109 107 105 105 108 112 118 121 123 122 116 107 100 95 93
332 305 43 84 127 185 252 211 237 246 178 137 140 85 66 119 244 147 121 147 138 140 141 145 141 135 131 131 128 128 127 124 122 118 116 115 114 113 114 119 125 131 134 128 121 118 115 108 91
303 233 108 159 188 209 232 233 114 339 148 123 319 273 134 220 157 164 130 137 134 137 140 147 141 137 135 134 133 131 132 132 129 127 126 126 124 123 126 128 132 140 143 136 133 134 132 127 102
42 17 352 173 227 244 230 240 95 95 339 86 121 257 290 213 155 152 137 138 133 135 142 145 143 140 138 138 137 136 140 140 136 136 135 133 132 132 137 144 148 151 152 148 145 147 146 147 211
48 71 200 229 242 245 248 255 292 235 178 152 109 295 259 44 111 135 137 137 137 136 144 144 144 141 141 142 140 142 146 145 143 145 147 146 147 147 151 156 156 156 162 163 161 164 173 189 247
40 116 142 223 240 245 251 258 240 261 259 141 109 249 8 134 129 139 133 134 138 135 144 147 148 145 144 144 142 144 149 149 152 155 156 156 157 157 160 165 166 166 173 176 176 186 203 221 250
154 113 204 204 232 257 241 210 220 264 263 253 164 172 133 155 135 132 124 127 129 133 145 147 151 150 148 146 149 153 156 158 161 162 163 162 160 164 167 174 175 179 189 197 200 209 226 237 253
162 116 223 212 217 260 227 237 269 274 287 101 120 69 172 166 139 117 117 119 120 135 144 154 145 147 145 151 153 158 160 165 168 167 165 164 168 175 176 183 190 194 200 215 220 231 241 252 263
156 197 220 216 203 248 287 336 226 310 199 86 266 169 161 152 125 116 121 116 118 137 148 155 162 157 146 146 161 158 161 162 165 167 170 170 170 181 190 193 208 211 213 225 235 244 252 262 272
172 210 227 207 231 264 281 231 290 333 33 82 98 135 141 139 140 135 141 142 148 152 163 164 164 161 152 153 150 150 165 158 156 167 172 174 184 202 198 212 217 222 225 231 242 253 266 273 269
211 229 233 282 242 267 270 318 332 281 197 157 143 149 149 140 148 145 154 159 165 162 161 170 163 159 158 150 154 154 152 161 168 173 178 187 190 230 226 217 249 235 241 243 266 266 252 254 265
281 254 241 305 289 266 273 304 309 288 254 207 153 157 151 147 162 162 164 163 158 162 168 167 170 170 168 154 167 168 169 170 173 199 186 178 208 219 230 224 219 211 210 235 239 250 262 262 255
246 285 279 234 255 267 292 279 293 283 293 173 158 161 165 169 168 173 166 165 160 166 170 172 169 168 161 162 166 169 173 180 188 185 200 184 196 217 209 228 193 217 194 219 237 246 258 268 262
281 312 282 251 257 264 258 295 287 279 298 179 164 163 169 172 167 158 160 166 170 164 171 168 170 166 159 166 171 181 181 185 181 191 200 200 199 198 209 229 211 212 216 226 220 228 239 252 257
289 274 280 256 243 256 132 268 245 261 250 146 158 174 170 120 93 103 78 190 172 171 171 169 165 165 170 174 173 186 191 184 188 198 197 200 201 205 202 203 193 206 216 249 267 266 260 253 254
294 202 241 248 225 234 167 253 257 270 184 173 153 162 148 125 126 113 91 33 305 173 177 173 172 174 178 179 175 175 182 192 203 208 200 202 202 193 160 177 206 215 262 228 243 241 251 249 262
248 249 226 294 200 208 183 232 246 164 167 151 148 151 145 137 115 101 90 77 46 18 326 207 176 175 173 171 168 184 189 184 194 200 208 204 192 162 180 193 210 247 283 326 14 328 23 337 359
216 209 247 222 200 199 218 233 265 157 148 158 175 162 155 151 121 109 99 97 80 45 358 319 230 247 176 157 149 154 172 169 136 146 149 156 164 172 191 190 215 252 296 346 348 289 51 94 263
274 286 272 286 240 159 214 230 227 183 149 151 176 167 171 163 140 138 142 122 130 126 5 298 309 239 181 153 130 117 186 41 51 117 143 147 171 184 188 198 165 248 299 62 225 163 120 253 348
256 266 269 286 238 175 175 224 237 168 165 175 166 164 173 135 132 149 129 157 138 141 171 233 288 281 175 164 115 114 135 273 214 182 198 194 188 170 134 142 107 39 354 50 38 19 17 216 97
242 246 255 249 255 200 125 278 205 217 162 149 211 159 143 151 154 161 136 134 145 152 168 184 246 270 251 184 129 88 50 20 21 328 19 21 73 69 96 94 67 53 48 33 344 227 134 282 97
246 237 250 267 266 202 169 208 252 219 195 160 193 160 145 146 155 163 158 164 153 181 186 178 208 240 198 127 106 80 104 94 319 28 60 50 43 36 38 39 13 15 37 42 7 10 339 283 286
239 239 247 273 258 159 148 108 230 110 217 210 201 190 145 148 150 155 175 175 190 178 196 197 200 178 156 151 112 106 76 69 78 75 79 69 54 48 36 54 53 50 59 44 42 26 23 1 18
237 308 266 264 221 223 180 126 228 211 208 134 165 202 141 143 154 163 175 156 167 134 151 127 81 44 72 67 57 69 80 77 87 68 70 62 56 47 39 46 48 50 52 46 42 37 39 28 30
198 265 252 161 153 194 184 159 212 220 157 163 165 185 138 150 167 166 151 144 118 111 98 108 96 75 82 82 77 83 87 81 76 72 76 70 55 43 34 41 45 46 43 42 44 38 37 25 36
192 205 249 114 148 156 165 202 215 194 152 154 155 166 130 154 176 171 166 128 108 108 102 93 86 88 91 91 84 81 83 84 77 67 69 69 67 59 47 54 52 51 49 50 56 52 43 31 25
186 200 221 303 112 123 195 147 121 126 154 161 164 136 146 165 165 114 99 109 108 101 100 104 101 88 79 81 84 75 72 72 74 69 65 61 53 61 52 55 59 55 50 45 52 54 39 29 16
228 335 190 245 162 129 193 163 186 175 172 170 168 147 92 97 93 96 100 104 104 104 98 91 90 93 88 79 76 73 69 68 72 76 72 59 53 49 49 57 65 57 47 35 37 40 26 32 10
172 239 231 73 178 146 139 205 203 170 163 168 159 115 115 107 106 105 100 97 99 97 99 100 96 92 86 83 82 81 77 73 70 65 58 53 50 42 49 72 71 60 48 34 37 25 25 24 11
274 261 199 131 106 53 117 293 309 188 171 142 118 116 114 112 112 106 102 101 98 96 94 94 91 91 94 96 89 81 75 64 64 62 56 51 48 35 51 75 68 58 47 35 34 24 12 11 2